Weather History for Willmar, MN

Change the Weather History Date:

Saturday, September 21, 2013

  Actual Average (KLJF) Record (KLJF)
Temperature  
Mean Temperature 52 °F -  
Max Temperature 64 °F 66 °F 86 °F (2005)
Min Temperature 39 °F 45 °F 33 °F (1982)
Degree Days  
Heating Degree Days 14    
Growing Degree Days 2 (Base 50)    
Moisture  
Dew Point 43 °F    
Average Humidity 73    
Maximum Humidity 93    
Minimum Humidity 45    
Precipitation  
Precipitation 0.00 in - - ()
Sea Level Pressure  
Sea Level Pressure 29.97 in    
Wind  
Wind Speed 2 mph (NNE)    
Max Wind Speed 8 mph    
Max Gust Speed -    
Visibility 9 miles    
Events Fog    
Averages and records for this station are not official NWS values.
T = Trace of Precipitation, MM = Missing Value Source: NWS Daily Summary

Daily Weather History Graph

Daily Weather History Graph

Search for Another Location

Airport:

Trip Planner

Search our weather history database for the weather conditions in past years. The results will help you decide how hot, cold, wet, or windy it might be!

Date:

Astronomy

Sep. 21, 2013 Rise Set
Actual Time 7:06 AM CDT 7:19 PM CDT
Civil Twilight 6:37 AM CDT 7:48 PM CDT
Nautical Twilight 6:02 AM CDT 8:23 PM CDT
Astronomical Twilight 5:27 AM CDT 8:58 PM CDT
Moon 8:21 PM CDT (9/21) 9:34 AM CDT (9/21)
Length of Visible Light 13h 11m
Length of Day
12h 12m
Waning Gibbous, 94% of the Moon is Illuminated
Sep 21
Waning Gibbous
Sep 26
Last Quarter
Oct 4
New
Oct 11
First Quarter
Oct 18
Full

Hourly Weather History & Observations

Time (CDT) Temp. Windchill Dew Point Humidity Pressure Visibility Wind Dir Wind Speed Gust Speed Precip Events Conditions
12:15 AM 46.4 °F - 42.8 °F 87% 29.98 in 10.0 mi Calm Calm - N/A   Clear
12:35 AM 44.6 °F - 42.8 °F 93% 29.98 in 10.0 mi Calm Calm - N/A   Clear
12:55 AM 44.6 °F - 42.8 °F 93% 29.98 in 10.0 mi Calm Calm - N/A   Clear
1:15 AM 44.6 °F - 42.8 °F 93% 29.98 in 10.0 mi Calm Calm - N/A   Clear
1:35 AM 42.8 °F 41.1 °F 41.0 °F 93% 29.99 in 10.0 mi West 3.5 mph - N/A   Clear
1:55 AM 44.6 °F 43.1 °F 41.0 °F 87% 29.99 in 10.0 mi West 3.5 mph - N/A   Clear
2:15 AM 42.8 °F 41.1 °F 41.0 °F 93% 29.99 in 10.0 mi West 3.5 mph - N/A   Clear
2:35 AM 42.8 °F 41.1 °F 41.0 °F 93% 29.99 in 10.0 mi West 3.5 mph - N/A   Clear
2:55 AM 42.8 °F 40.1 °F 41.0 °F 93% 29.99 in 10.0 mi West 4.6 mph - N/A   Clear
3:15 AM 42.8 °F - 41.0 °F 93% 29.99 in 10.0 mi Calm Calm - N/A   Clear
3:35 AM 42.8 °F 41.1 °F 39.2 °F 87% 29.99 in 10.0 mi WNW 3.5 mph - N/A   Clear
3:55 AM 41.0 °F - 39.2 °F 93% 29.99 in 10.0 mi Calm Calm - N/A   Clear
4:15 AM 42.8 °F 41.1 °F 39.2 °F 87% 29.99 in 7.0 mi WNW 3.5 mph - N/A   Clear
4:25 AM 42.8 °F - 39.2 °F 87% 30.00 in 7.0 mi Calm Calm - N/A   Clear
5:55 AM - - - N/A% 29.99 in - Calm Calm - N/A   Unknown
5:56 AM 39.2 °F - - N/A% 30.00 in - Calm Calm - N/A   Unknown
6:15 AM 39.2 °F - 37.4 °F 93% 30.00 in 2.0 mi Calm Calm - N/A   Clear
6:35 AM 39.2 °F - 37.4 °F 93% 30.01 in 4.0 mi Calm Calm - N/A   Clear
6:55 AM 39.2 °F - 37.4 °F 93% 30.01 in 7.0 mi Calm Calm - N/A   Scattered Clouds
7:15 AM 39.2 °F - 37.4 °F 93% 30.01 in 0.2 mi Calm Calm - N/A Fog Fog
7:35 AM 39.2 °F - 37.4 °F 93% 30.01 in 0.8 mi Calm Calm - N/A   Overcast
7:55 AM 41.0 °F - 39.2 °F 93% 30.01 in 4.0 mi Calm Calm - N/A   Scattered Clouds
8:15 AM 42.8 °F - 41.0 °F 93% 30.02 in 4.0 mi Calm Calm - N/A   Clear
8:35 AM 46.4 °F - 44.6 °F 93% 30.02 in 5.0 mi Calm Calm - N/A   Clear
8:55 AM 48.2 °F - 46.4 °F 93% 30.02 in 10.0 mi Calm Calm - N/A   Clear
9:13 AM 51.8 °F - 48.2 °F 88% 30.02 in 10.0 mi NNE 5.8 mph - N/A   Clear
9:35 AM 51.8 °F - 42.8 °F 71% 30.03 in 10.0 mi NNE 4.6 mph - N/A   Clear
9:55 AM 53.6 °F - 42.8 °F 67% 30.04 in 10.0 mi NE 8.1 mph - N/A   Clear
10:13 AM 53.6 °F - 42.8 °F 67% 30.04 in 10.0 mi NE 4.6 mph - N/A   Clear
10:35 AM 53.6 °F - 42.8 °F 67% 30.04 in 10.0 mi NNW 3.5 mph - N/A   Clear
10:55 AM 55.4 °F - 42.8 °F 63% 30.03 in - Calm Calm - N/A   Clear
11:15 AM 55.4 °F - 42.8 °F 63% 30.03 in 10.0 mi Calm Calm - N/A   Clear
11:35 AM 55.4 °F - 42.8 °F 63% - 10.0 mi West 3.5 mph - N/A   Clear
11:55 AM 57.2 °F - 42.8 °F 59% 30.03 in 10.0 mi WNW 4.6 mph - N/A   Clear
12:15 PM 57.2 °F - 42.8 °F 59% 30.02 in 10.0 mi NW 3.5 mph - N/A   Clear
12:35 PM 59.0 °F - 42.8 °F 55% 30.01 in 10.0 mi Calm Calm - N/A   Clear
12:55 PM 59.0 °F - 42.8 °F 55% 30.01 in 10.0 mi NNW 4.6 mph - N/A   Clear
1:15 PM 60.8 °F - 44.6 °F 55% - 10.0 mi NNW 6.9 mph - N/A   Clear
1:35 PM 60.8 °F - 42.8 °F 52% 30.00 in 10.0 mi NW 3.5 mph - N/A   Clear
1:55 PM 60.8 °F - 42.8 °F 52% 29.99 in 10.0 mi Calm Calm - N/A   Clear
2:15 PM 62.6 °F - 42.8 °F 48% 29.98 in 10.0 mi WNW 5.8 mph - N/A   Clear
2:35 PM 62.6 °F - 44.6 °F 52% 29.97 in 10.0 mi NW 4.6 mph - N/A   Clear
2:55 PM 62.6 °F - 44.6 °F 52% 29.96 in 10.0 mi NNE 3.5 mph - N/A   Clear
3:15 PM 62.6 °F - 44.6 °F 52% 29.96 in 10.0 mi NNW 3.5 mph - N/A   Clear
3:35 PM 62.6 °F - 44.6 °F 52% 29.95 in 10.0 mi Calm Calm - N/A   Clear
3:55 PM 64.4 °F - 44.6 °F 49% 29.94 in 10.0 mi Calm Calm - N/A   Clear
4:15 PM 64.4 °F - 44.6 °F 49% 29.94 in 10.0 mi Calm Calm - N/A   Clear
4:35 PM 64.4 °F - 42.8 °F 45% 29.93 in 10.0 mi Calm Calm - N/A   Clear
4:55 PM 64.4 °F - 42.8 °F 45% 29.93 in 10.0 mi Calm Calm - N/A   Clear
5:15 PM 64.4 °F - 44.6 °F 49% 29.93 in 10.0 mi Calm Calm - N/A   Clear
5:35 PM 64.4 °F - 44.6 °F 49% 29.92 in 10.0 mi NE 3.5 mph - N/A   Clear
5:55 PM 64.4 °F - 44.6 °F 49% 29.92 in 10.0 mi Calm Calm - N/A   Clear
6:15 PM 62.6 °F - 46.4 °F 55% 29.91 in 10.0 mi ENE 4.6 mph - N/A   Clear
6:35 PM 62.6 °F - 46.4 °F 55% 29.91 in 10.0 mi Calm Calm - N/A   Clear
6:55 PM 60.8 °F - 48.2 °F 63% 29.91 in 10.0 mi Calm Calm - N/A   Clear
7:15 PM 57.2 °F - 46.4 °F 67% 29.91 in 10.0 mi Calm Calm - N/A   Clear
7:35 PM 53.6 °F - 46.4 °F 77% 29.91 in 10.0 mi East 4.6 mph - N/A   Clear
7:55 PM 53.6 °F - 44.6 °F 72% 29.91 in 10.0 mi East 4.6 mph - N/A   Clear
8:15 PM 53.6 °F - 44.6 °F 72% 29.92 in 10.0 mi East 3.5 mph - N/A   Clear
8:35 PM 51.8 °F - 44.6 °F 76% 29.92 in 10.0 mi East 4.6 mph - N/A   Clear
8:56 PM 51.8 °F - 44.6 °F 76% 29.92 in 10.0 mi East 5.8 mph - N/A   Clear
9:15 PM 51.8 °F - 44.6 °F 76% 29.92 in 10.0 mi East 5.8 mph - N/A   Clear
9:35 PM 50.0 °F - 44.6 °F 82% 29.93 in 10.0 mi East 6.9 mph - N/A   Clear
9:56 PM 50.0 °F - 44.6 °F 82% 29.93 in 10.0 mi East 5.8 mph - N/A   Clear
10:15 PM 51.8 °F - 44.6 °F 76% 29.93 in 10.0 mi East 8.1 mph - N/A   Clear
10:35 PM 51.8 °F - 44.6 °F 76% 29.93 in 10.0 mi East 6.9 mph - N/A   Clear
10:56 PM 51.8 °F - 44.6 °F 76% 29.93 in 10.0 mi East 6.9 mph - N/A   Clear
11:15 PM 51.8 °F - 44.6 °F 76% 29.93 in 10.0 mi East 6.9 mph - N/A   Clear
11:35 PM 51.8 °F - 46.4 °F 82% 29.93 in 10.0 mi ESE 6.9 mph - N/A   Clear
11:55 PM 50.0 °F - 44.6 °F 82% 29.93 in 10.0 mi ESE 6.9 mph - N/A   Clear